^^
Station Historical Data
Daily Summary for January 25, 2018 Units:  English    Metric   Both
« Previous Day
Next Day »
Daily Weekly Monthly Yearly Custom
  High: Low: Average:
Temperature: TemperatureC °F 2.1 °F 3.5 °F
Dew Point: DewpointC °F 1.1 °F 2.6 °F
Humidity: Humidity% 92% 93%
Wind Speed: WindSpeedKMHmph 0.0mph 3.7mph
Wind Gust: WindSpeedGustKMHmph - -
Wind- - SSW
Pressure: PressurehPa in 993.5 in -
Precipitation: 9.9 in    
Historical Graphs
 
 
Tabular Data for January 25, 2018
Time Temperature Dew Point Pressure Wind Wind Speed Wind Gust Humidity Rainfall Rate (Hourly) solar Conditions
TemperatureC °F DewpointC °F PressurehPa in Calm     Humidity% HourlyPrecipMM in SoftwareType W/m2 Conditions
00:00 2.5 °F 1.6 °F 998.5 in South 0.3 mph 9.3 mph 94% 0.0 in WeatherDisplay:10.37 W/m2 FEW
00:05 2.5 °F 1.6 °F 998.2 in SE 6.0 mph 9.3 mph 94% 0.0 in WeatherDisplay:10.37 W/m2 RA
00:10 2.5 °F 1.6 °F 998.2 in North 3.9 mph 7.4 mph 94% 0.3 in WeatherDisplay:10.37 W/m2 RA
00:15 2.6 °F 1.7 °F 998.2 in SSW 4.3 mph 18.5 mph 94% 0.3 in WeatherDisplay:10.37 W/m2 RA
00:20 2.6 °F 1.7 °F 998.2 in SSW 2.7 mph 2.7 mph 94% 0.3 in WeatherDisplay:10.37 W/m2 FEW
00:25 2.7 °F 1.8 °F 997.9 in ENE 1.4 mph 11.1 mph 94% 0.5 in WeatherDisplay:10.37 W/m2 RA
00:30 2.7 °F 1.8 °F 997.9 in SSE 5.3 mph 11.1 mph 94% 0.5 in WeatherDisplay:10.37 W/m2 RA
00:35 2.6 °F 1.7 °F 997.9 in NNE 3.2 mph 14.8 mph 94% 0.5 in WeatherDisplay:10.37 W/m2 FEW
00:40 2.7 °F 1.8 °F 997.9 in SE 1.1 mph 20.4 mph 94% 0.5 in WeatherDisplay:10.37 W/m2 FEW
00:45 2.8 °F 1.9 °F 997.9 in South 9.7 mph 14.5 mph 94% 0.5 in WeatherDisplay:10.37 W/m2 RA
00:50 2.9 °F 2.1 °F 997.5 in SE 4.7 mph 16.7 mph 94% 0.5 in WeatherDisplay:10.37 W/m2 RA
00:55 3.0 °F 2.1 °F 997.5 in South 8.8 mph 8.8 mph 94% 0.5 in WeatherDisplay:10.37 W/m2 FEW
01:00 3.1 °F 2.2 °F 997.5 in South 7.1 mph 7.4 mph 94% 0.8 in WeatherDisplay:10.37 W/m2 RA
01:05 3.1 °F 2.4 °F 997.2 in WSW 7.6 mph 12.9 mph 95% 0.8 in WeatherDisplay:10.37 W/m2 RA
01:10 3.2 °F 2.5 °F 997.2 in SSW 8.4 mph 20.9 mph 95% 0.5 in WeatherDisplay:10.37 W/m2 FEW
01:15 3.3 °F 2.4 °F 997.2 in South 9.2 mph 29.6 mph 94% 0.5 in WeatherDisplay:10.37 W/m2 FEW
01:20 3.3 °F 2.4 °F 996.8 in SW 6.4 mph 22.2 mph 94% 0.8 in WeatherDisplay:10.37 W/m2 RA
01:25 3.3 °F 2.4 °F 996.8 in SW 10.8 mph 29.6 mph 94% 0.5 in WeatherDisplay:10.37 W/m2 RA
01:30 3.3 °F 2.4 °F 996.8 in WSW 11.9 mph 11.9 mph 94% 0.8 in WeatherDisplay:10.37 W/m2 RA
01:35 3.3 °F 2.4 °F 996.8 in South 6.0 mph 20.9 mph 94% 0.8 in WeatherDisplay:10.37 W/m2 RA
01:41 3.4 °F 2.7 °F 996.8 in East 7.2 mph 11.3 mph 95% 0.8 in WeatherDisplay:10.37 W/m2 FEW
01:46 3.3 °F 2.4 °F 996.8 in South 13.8 mph 42.6 mph 94% 0.8 in WeatherDisplay:10.37 W/m2 RA
01:51 3.4 °F 2.5 °F 996.5 in SSE 7.9 mph 24.1 mph 94% 0.8 in WeatherDisplay:10.37 W/m2 RA
01:56 3.4 °F 2.5 °F 996.5 in SE 6.8 mph 14.8 mph 94% 0.8 in WeatherDisplay:10.37 W/m2 FEW
02:01 3.3 °F 2.4 °F 996.5 in SSW 3.2 mph 16.7 mph 94% 0.5 in WeatherDisplay:10.37 W/m2 FEW
02:06 3.3 °F 2.4 °F 996.2 in NE 6.8 mph 14.8 mph 94% 0.8 in WeatherDisplay:10.37 W/m2 RA
02:11 3.3 °F 2.4 °F 996.2 in South 7.2 mph 13.0 mph 94% 0.8 in WeatherDisplay:10.37 W/m2 RA
02:16 3.4 °F 2.5 °F 996.2 in North 9.2 mph 18.5 mph 94% 0.5 in WeatherDisplay:10.37 W/m2 FEW
02:21 3.4 °F 2.7 °F 996.2 in SSE 6.9 mph 14.8 mph 95% 0.5 in WeatherDisplay:10.37 W/m2 FEW
02:26 3.5 °F 2.8 °F 996.2 in South 6.1 mph 14.5 mph 95% 0.5 in WeatherDisplay:10.37 W/m2 FEW
02:31 3.5 °F 2.8 °F 995.8 in SE 7.9 mph 22.5 mph 95% 0.5 in WeatherDisplay:10.37 W/m2 FEW
02:36 3.5 °F 2.8 °F 995.8 in SSW 7.6 mph 18.5 mph 95% 0.5 in WeatherDisplay:10.37 W/m2 FEW
02:41 3.6 °F 2.7 °F 995.8 in SW 3.2 mph 22.2 mph 94% 0.5 in WeatherDisplay:10.37 W/m2 RA
02:46 3.6 °F 2.9 °F 996.2 in WSW 3.7 mph 13.0 mph 95% 0.5 in WeatherDisplay:10.37 W/m2 RA
02:51 3.7 °F 2.8 °F 996.2 in SSW 9.0 mph 14.8 mph 94% 0.5 in WeatherDisplay:10.37 W/m2 FEW
02:56 3.7 °F 2.8 °F 995.8 in WSW 4.7 mph 20.4 mph 94% 0.5 in WeatherDisplay:10.37 W/m2 FEW
03:01 3.7 °F 2.8 °F 995.8 in WNW 6.6 mph 13.0 mph 94% 0.5 in WeatherDisplay:10.37 W/m2 FEW
03:06 3.7 °F 2.8 °F 995.5 in SSE 9.0 mph 18.5 mph 94% 0.5 in WeatherDisplay:10.37 W/m2 RA
03:11 3.7 °F 2.8 °F 995.8 in SSE 6.4 mph 24.1 mph 94% 0.5 in WeatherDisplay:10.37 W/m2 RA
03:16 3.7 °F 2.8 °F 995.5 in SSE 7.9 mph 14.8 mph 94% 0.5 in WeatherDisplay:10.37 W/m2 FEW
03:21 3.7 °F 2.8 °F 995.5 in ESE 1.6 mph 9.3 mph 94% 0.5 in WeatherDisplay:10.37 W/m2 RA
03:26 3.7 °F 2.8 °F 995.1 in SSE 7.9 mph 16.1 mph 94% 0.5 in WeatherDisplay:10.37 W/m2 RA
03:31 3.7 °F 2.8 °F 995.1 in South 13.8 mph 31.5 mph 94% 0.5 in WeatherDisplay:10.37 W/m2 FEW
03:36 3.8 °F 2.9 °F 995.1 in NNE 3.5 mph 9.3 mph 94% 0.5 in WeatherDisplay:10.37 W/m2 FEW
03:41 3.7 °F 2.8 °F 995.1 in SE 3.4 mph 5.6 mph 94% 0.5 in WeatherDisplay:10.37 W/m2 FEW
03:46 3.6 °F 2.7 °F 995.1 in SE 7.1 mph 19.3 mph 94% 0.5 in WeatherDisplay:10.37 W/m2 RA
03:51 3.7 °F 2.8 °F 995.1 in SSE 2.3 mph 16.7 mph 94% 0.5 in WeatherDisplay:10.37 W/m2 RA
03:56 3.7 °F 2.8 °F 994.8 in WNW 7.6 mph 20.4 mph 94% 1.0 in WeatherDisplay:10.37 W/m2 RA
04:01 3.6 °F 2.7 °F 994.8 in NE 6.0 mph 14.8 mph 94% 1.3 in WeatherDisplay:10.37 W/m2 RA
04:06 3.7 °F 2.8 °F 994.8 in South 3.2 mph 6.4 mph 94% 1.3 in WeatherDisplay:10.37 W/m2 RA
04:11 3.7 °F 2.8 °F 994.8 in NNW 4.2 mph 14.8 mph 94% 1.3 in WeatherDisplay:10.37 W/m2 RA
04:16 3.7 °F 2.8 °F 994.8 in SE 6.4 mph 16.7 mph 94% 1.5 in WeatherDisplay:10.37 W/m2 RA
04:21 3.6 °F 2.7 °F 994.5 in SSW 6.8 mph 16.7 mph 94% 1.3 in WeatherDisplay:10.37 W/m2 RA
04:26 3.6 °F 2.7 °F 994.5 in North 9.0 mph 27.8 mph 94% 1.3 in WeatherDisplay:10.37 W/m2 FEW
04:31 3.6 °F 2.7 °F 994.5 in NNW 2.4 mph 14.8 mph 94% 1.5 in WeatherDisplay:10.37 W/m2 RA
04:36 3.6 °F 2.7 °F 994.5 in South 4.5 mph 16.7 mph 94% 1.5 in WeatherDisplay:10.37 W/m2 RA
04:41 3.6 °F 2.7 °F 994.5 in WNW 5.8 mph 7.4 mph 94% 1.5 in WeatherDisplay:10.37 W/m2 FEW
04:46 3.6 °F 2.7 °F 994.1 in SSE 7.4 mph 11.1 mph 94% 1.5 in WeatherDisplay:10.37 W/m2 RA
04:51 3.6 °F 2.7 °F 994.1 in SW 8.7 mph 22.2 mph 94% 1.5 in WeatherDisplay:10.37 W/m2 RA
04:56 3.6 °F 2.7 °F 994.1 in WSW 4.5 mph 9.3 mph 94% 1.3 in WeatherDisplay:10.37 W/m2 RA
05:01 3.6 °F 2.7 °F 994.1 in NW 6.1 mph 16.7 mph 94% 1.0 in WeatherDisplay:10.37 W/m2 RA
05:06 3.6 °F 2.7 °F 994.1 in SSW 9.8 mph 18.5 mph 94% 1.3 in WeatherDisplay:10.37 W/m2 RA
05:11 3.6 °F 2.7 °F 994.1 in SSW 8.2 mph 17.7 mph 94% 1.3 in WeatherDisplay:10.37 W/m2 RA
05:16 3.6 °F 2.7 °F 994.1 in SE 8.4 mph 13.0 mph 94% 1.3 in WeatherDisplay:10.37 W/m2 RA
05:21 3.7 °F 2.8 °F 994.1 in South 7.1 mph 18.5 mph 94% 1.5 in WeatherDisplay:10.37 W/m2 RA
05:26 3.7 °F 2.8 °F 994.1 in NE 3.9 mph 11.1 mph 94% 1.5 in WeatherDisplay:10.37 W/m2 RA
05:31 3.7 °F 2.8 °F 994.1 in SE 9.5 mph 22.2 mph 94% 1.5 in WeatherDisplay:10.37 W/m2 RA
05:36 3.7 °F 2.8 °F 993.8 in NNW 6.1 mph 11.1 mph 94% 1.5 in WeatherDisplay:10.37 W/m2 RA
05:41 3.7 °F 2.8 °F 993.8 in SW 4.2 mph 11.1 mph 94% 1.5 in WeatherDisplay:10.37 W/m2 RA
05:46 3.6 °F 2.7 °F 993.8 in NE 5.3 mph 11.1 mph 94% 1.5 in WeatherDisplay:10.37 W/m2 RA
05:51 3.6 °F 2.7 °F 993.8 in SE 4.5 mph 9.3 mph 94% 1.5 in WeatherDisplay:10.37 W/m2 RA
05:56 3.6 °F 2.7 °F 993.8 in WSW 7.6 mph 33.8 mph 94% 1.5 in WeatherDisplay:10.37 W/m2 RA
06:01 3.6 °F 2.7 °F 993.5 in SSE 8.2 mph 18.5 mph 94% 1.8 in WeatherDisplay:10.37 W/m2 RA
06:06 3.6 °F 2.7 °F 993.5 in SSE 4.8 mph 18.5 mph 94% 1.5 in WeatherDisplay:10.37 W/m2 RA
06:11 3.6 °F 2.7 °F 993.8 in ESE 9.0 mph 13.0 mph 94% 1.5 in WeatherDisplay:10.37 W/m2 RA
06:16 3.6 °F 2.7 °F 993.5 in SE 5.8 mph 14.8 mph 94% 1.5 in WeatherDisplay:10.37 W/m2 RA
06:21 3.6 °F 2.7 °F 993.5 in NNE 5.6 mph 16.7 mph 94% 1.5 in WeatherDisplay:10.37 W/m2 RA
06:26 3.6 °F 2.7 °F 993.5 in SSW 7.2 mph 19.3 mph 94% 1.8 in WeatherDisplay:10.37 W/m2 RA
06:31 3.6 °F 2.7 °F 993.5 in South 8.0 mph 16.7 mph 94% 1.5 in WeatherDisplay:10.37 W/m2 RA
06:36 3.5 °F 2.6 °F 993.5 in South 4.8 mph 14.8 mph 94% 1.5 in WeatherDisplay:10.37 W/m2 RA
06:41 3.6 °F 2.7 °F 993.5 in SE 0.3 mph 7.4 mph 94% 1.5 in WeatherDisplay:10.37 W/m2 RA
06:46 3.6 °F 2.7 °F 993.5 in East 5.0 mph 11.1 mph 94% 1.5 in WeatherDisplay:10.37 W/m2 RA
06:51 3.5 °F 2.6 °F 993.5 in WSW 8.0 mph 16.7 mph 94% 1.8 in WeatherDisplay:10.37 W/m2 RA
06:56 3.6 °F 2.7 °F 993.5 in SSE 3.7 mph 9.3 mph 94% 1.8 in WeatherDisplay:10.37 W/m2 RA
07:01 3.6 °F 2.7 °F 993.5 in SSE 6.1 mph 11.1 mph 94% 1.8 in WeatherDisplay:10.37 W/m2 RA
07:06 3.6 °F 2.7 °F 993.5 in WSW 7.1 mph 22.2 mph 94% 1.8 in WeatherDisplay:10.37 W/m2 RA
07:11 3.6 °F 2.7 °F 993.5 in SE 5.1 mph 12.9 mph 94% 1.8 in WeatherDisplay:10.37 W/m2 RA
07:16 3.6 °F 2.7 °F 993.5 in ESE 6.8 mph 20.9 mph 94% 1.8 in WeatherDisplay:10.37 W/m2 RA
07:21 3.6 °F 2.7 °F 993.5 in South 4.5 mph 11.1 mph 94% 2.0 in WeatherDisplay:10.37 W/m2 RA
07:26 3.6 °F 2.7 °F 993.5 in NE 1.3 mph 11.1 mph 94% 1.5 in WeatherDisplay:10.37 W/m2 RA
07:31 3.6 °F 2.7 °F 993.5 in North 1.4 mph 16.7 mph 94% 1.8 in WeatherDisplay:10.37 W/m2 RA
07:36 3.7 °F 2.8 °F 993.5 in SE 1.3 mph 7.4 mph 94% 1.8 in WeatherDisplay:10.37 W/m2 RA
07:41 3.7 °F 2.8 °F 993.5 in SW 4.0 mph 7.4 mph 94% 1.8 in WeatherDisplay:10.37 W/m2 RA
07:46 3.7 °F 2.8 °F 993.5 in SE 5.8 mph 11.1 mph 94% 1.8 in WeatherDisplay:10.37 W/m2 RA
07:51 3.7 °F 2.8 °F 993.5 in SSE 5.1 mph 5.6 mph 94% 1.8 in WeatherDisplay:10.37 W/m2 RA
07:56 3.7 °F 2.8 °F 993.5 in SSW 7.9 mph 20.4 mph 94% 1.8 in WeatherDisplay:10.37 W/m2 RA
08:01 3.6 °F 2.7 °F 993.5 in SSE 6.8 mph 12.9 mph 94% 1.8 in WeatherDisplay:10.37 W/m2 RA
08:06 3.6 °F 2.7 °F 993.5 in South 5.1 mph 14.5 mph 94% 2.0 in WeatherDisplay:10.37 W/m2 RA
08:11 3.7 °F 2.8 °F 993.5 in SSW 4.2 mph 9.7 mph 94% 1.8 in WeatherDisplay:10.37 W/m2 RA
08:16 3.7 °F 2.8 °F 993.5 in SW 0.6 mph 6.4 mph 94% 1.5 in WeatherDisplay:10.37 W/m2 FEW
08:21 3.7 °F 2.8 °F 993.5 in SSW 4.8 mph 11.1 mph 94% 1.5 in WeatherDisplay:10.37 W/m2 FEW
08:26 3.7 °F 2.8 °F 993.8 in WSW 3.9 mph 9.3 mph 94% 1.5 in WeatherDisplay:10.37 W/m2 FEW
08:31 3.7 °F 2.8 °F 993.8 in ESE 6.4 mph 14.8 mph 94% 1.5 in WeatherDisplay:10.37 W/m2 RA
08:36 3.7 °F 2.8 °F 993.5 in NW 1.9 mph 13.0 mph 94% 1.3 in WeatherDisplay:10.37 W/m2 RA
08:41 3.7 °F 2.8 °F 993.5 in Calm   9.3 mph 94% 1.3 in WeatherDisplay:10.37 W/m2 FEW
08:46 3.7 °F 2.8 °F 993.8 in SSE 4.3 mph 11.1 mph 94% 1.0 in WeatherDisplay:10.37 W/m2 FEW
08:51 3.7 °F 2.8 °F 993.8 in SSE 6.9 mph 13.0 mph 94% 0.8 in WeatherDisplay:10.37 W/m2 FEW
08:56 3.7 °F 2.8 °F 993.5 in SSE 2.3 mph 33.3 mph 94% 0.5 in WeatherDisplay:10.37 W/m2 FEW
09:01 3.7 °F 2.8 °F 993.5 in WSW 1.3 mph 7.4 mph 94% 0.5 in WeatherDisplay:10.37 W/m2 FEW
09:06 3.6 °F 2.7 °F 993.8 in WSW 2.6 mph 11.1 mph 94% 0.3 in WeatherDisplay:10.37 W/m2 FEW
09:11 3.6 °F 2.7 °F 993.8 in WSW 3.1 mph 5.6 mph 94% 0.3 in WeatherDisplay:10.37 W/m2 FEW
09:16 3.7 °F 2.8 °F 993.8 in NNE 3.4 mph 14.8 mph 94% 0.3 in WeatherDisplay:10.37 W/m2 FEW
09:21 3.7 °F 2.8 °F 993.8 in South 4.8 mph 9.3 mph 94% 0.3 in WeatherDisplay:10.37 W/m2 FEW
09:26 3.7 °F 2.8 °F 993.8 in SE 1.1 mph 11.1 mph 94% 0.3 in WeatherDisplay:10.37 W/m2 FEW
09:31 3.6 °F 2.7 °F 993.8 in SE 3.4 mph 11.1 mph 94% 0.0 in WeatherDisplay:10.37 W/m2 FEW
09:36 3.7 °F 2.8 °F 993.8 in South 9.5 mph 14.8 mph 94% 0.0 in WeatherDisplay:10.37 W/m2 FEW
09:41 3.7 °F 2.8 °F 993.8 in East 1.8 mph 5.6 mph 94% 0.0 in WeatherDisplay:10.37 W/m2 FEW
09:46 3.7 °F 2.8 °F 993.8 in SSW 5.3 mph 18.5 mph 94% 0.0 in WeatherDisplay:10.37 W/m2 FEW
09:51 3.8 °F 2.9 °F 993.8 in SE 2.3 mph 4.8 mph 94% 0.0 in WeatherDisplay:10.37 W/m2 FEW
09:56 3.8 °F 2.9 °F 994.1 in WSW 1.3 mph 5.6 mph 94% 0.0 in WeatherDisplay:10.37 W/m2 FEW
10:01 3.8 °F 2.9 °F 993.8 in SSE 5.3 mph 25.9 mph 94% 0.0 in WeatherDisplay:10.37 W/m2 FEW
10:06 3.8 °F 2.9 °F 993.8 in SW 5.3 mph 18.5 mph 94% 0.0 in WeatherDisplay:10.37 W/m2 FEW
10:11 3.8 °F 2.9 °F 993.8 in NNW 3.2 mph 9.3 mph 94% 0.0 in WeatherDisplay:10.37 W/m2 FEW
10:16 3.9 °F 3.0 °F 993.8 in WNW 1.4 mph 5.6 mph 94% 0.0 in WeatherDisplay:10.37 W/m2 FEW
10:21 3.8 °F 2.9 °F 993.8 in SW 1.1 mph 5.6 mph 94% 0.0 in WeatherDisplay:10.37 W/m2 FEW
10:26 3.9 °F 3.1 °F 994.1 in WNW 1.3 mph 5.6 mph 94% 0.0 in WeatherDisplay:10.37 W/m2 FEW
10:31 3.9 °F 3.1 °F 994.1 in West 2.9 mph 9.7 mph 94% 0.0 in WeatherDisplay:10.37 W/m2 FEW
10:36 4.0 °F 3.1 °F 994.1 in SSW 7.4 mph 18.5 mph 94% 0.0 in WeatherDisplay:10.37 W/m2 FEW
10:41 4.0 °F 3.1 °F 994.1 in NW 2.9 mph 13.0 mph 94% 0.0 in WeatherDisplay:10.37 W/m2 FEW
10:46 3.9 °F 3.0 °F 994.1 in WNW 0.3 mph 3.7 mph 94% 0.0 in WeatherDisplay:10.37 W/m2 FEW
10:51 3.9 °F 3.0 °F 994.1 in North 0.6 mph 1.9 mph 94% 0.0 in WeatherDisplay:10.37 W/m2 FEW
10:56 3.9 °F 3.0 °F 994.1 in Calm   7.4 mph 94% 0.0 in WeatherDisplay:10.37 W/m2 FEW
11:01 3.9 °F 3.0 °F 994.1 in SSE 5.0 mph 13.0 mph 94% 0.0 in WeatherDisplay:10.37 W/m2 FEW
11:06 3.9 °F 3.1 °F 994.1 in SW 3.1 mph 13.0 mph 94% 0.0 in WeatherDisplay:10.37 W/m2 FEW
11:11 3.9 °F 3.0 °F 994.5 in ENE 2.7 mph 8.0 mph 94% 0.0 in WeatherDisplay:10.37 W/m2 FEW
11:16 3.9 °F 3.1 °F 994.5 in WNW 7.1 mph 7.4 mph 94% 0.0 in WeatherDisplay:10.37 W/m2 FEW
11:21 4.0 °F 3.1 °F 994.5 in SW 1.4 mph 9.3 mph 94% 0.0 in WeatherDisplay:10.37 W/m2 FEW
11:26 3.9 °F 3.1 °F 994.5 in SSW 4.5 mph 9.3 mph 94% 0.0 in WeatherDisplay:10.37 W/m2 FEW
11:31 3.9 °F 3.1 °F 994.5 in SSW 1.3 mph 20.4 mph 94% 0.0 in WeatherDisplay:10.37 W/m2 FEW
11:36 3.9 °F 3.1 °F 994.8 in South 3.9 mph 14.8 mph 94% 0.0 in WeatherDisplay:10.37 W/m2 FEW
11:41 3.9 °F 3.0 °F 994.8 in NW 5.8 mph 13.0 mph 94% 0.0 in WeatherDisplay:10.37 W/m2 FEW
11:46 3.9 °F 3.0 °F 994.8 in North 3.2 mph 14.8 mph 94% 0.0 in WeatherDisplay:10.37 W/m2 FEW
11:51 3.9 °F 3.0 °F 994.8 in SSE 1.0 mph 8.0 mph 94% 0.0 in WeatherDisplay:10.37 W/m2 FEW
11:56 3.9 °F 3.1 °F 994.8 in SSE 1.6 mph 9.3 mph 94% 0.0 in WeatherDisplay:10.37 W/m2 FEW
12:01 3.9 °F 3.1 °F 995.1 in SSW 7.1 mph 22.2 mph 94% 0.0 in WeatherDisplay:10.37 W/m2 FEW
12:06 3.9 °F 3.0 °F 995.1 in West 6.0 mph 7.4 mph 94% 0.0 in WeatherDisplay:10.37 W/m2 FEW
12:11 3.8 °F 2.9 °F 995.1 in SE 7.1 mph 13.0 mph 94% 0.0 in WeatherDisplay:10.37 W/m2 FEW
12:16 3.9 °F 3.1 °F 995.1 in West 5.0 mph 14.8 mph 94% 0.0 in WeatherDisplay:10.37 W/m2 FEW
12:21 4.0 °F 3.1 °F 995.1 in West 5.5 mph 11.1 mph 94% 0.0 in WeatherDisplay:10.37 W/m2 FEW
12:26 3.9 °F 3.1 °F 995.1 in NE 3.9 mph 11.1 mph 94% 0.0 in WeatherDisplay:10.37 W/m2 FEW
12:31 3.9 °F 3.0 °F 995.1 in West 3.5 mph 14.8 mph 94% 0.0 in WeatherDisplay:10.37 W/m2 FEW
12:36 3.8 °F 2.9 °F 995.1 in Calm   14.8 mph 94% 0.0 in WeatherDisplay:10.37 W/m2 FEW
12:41 3.9 °F 3.0 °F 995.1 in SSW 6.1 mph 14.8 mph 94% 0.0 in WeatherDisplay:10.37 W/m2 FEW
12:46 3.9 °F 2.9 °F 995.1 in WSW 0.6 mph 5.6 mph 93% 0.0 in WeatherDisplay:10.37 W/m2 FEW
12:51 3.8 °F 2.8 °F 995.1 in West 4.0 mph 9.7 mph 93% 0.0 in WeatherDisplay:10.37 W/m2 FEW
12:56 3.8 °F 2.8 °F 995.1 in WNW 5.1 mph 11.1 mph 93% 0.0 in WeatherDisplay:10.37 W/m2 FEW
13:01 3.9 °F 2.8 °F 995.1 in South 6.4 mph 16.7 mph 93% 0.0 in WeatherDisplay:10.37 W/m2 FEW
13:06 3.9 °F 2.8 °F 995.1 in West 9.3 mph 14.8 mph 93% 0.0 in WeatherDisplay:10.37 W/m2 FEW
13:11 3.9 °F 2.8 °F 995.1 in North 3.2 mph 5.6 mph 93% 0.0 in WeatherDisplay:10.37 W/m2 FEW
13:16 3.9 °F 2.8 °F 995.1 in NNW 3.1 mph 5.6 mph 93% 0.0 in WeatherDisplay:10.37 W/m2 FEW
13:21 3.9 °F 2.8 °F 995.1 in ESE 1.8 mph 5.6 mph 93% 0.0 in WeatherDisplay:10.37 W/m2 FEW
13:26 3.8 °F 2.9 °F 995.1 in SSW 7.4 mph 16.7 mph 94% 0.0 in WeatherDisplay:10.37 W/m2 FEW
13:31 3.9 °F 3.0 °F 995.1 in NNE 3.9 mph 13.0 mph 94% 0.0 in WeatherDisplay:10.37 W/m2 FEW
13:36 3.8 °F 2.9 °F 995.1 in North 6.0 mph 18.5 mph 94% 0.0 in WeatherDisplay:10.37 W/m2 FEW
13:41 3.8 °F 2.9 °F 995.1 in SW 4.0 mph 16.7 mph 94% 0.0 in WeatherDisplay:10.37 W/m2 FEW
13:46 3.8 °F 2.9 °F 995.1 in SW 7.7 mph 14.8 mph 94% 0.0 in WeatherDisplay:10.37 W/m2 FEW
13:51 3.8 °F 2.9 °F 995.1 in SSE 1.4 mph 5.6 mph 94% 0.0 in WeatherDisplay:10.37 W/m2 FEW
13:56 3.9 °F 3.1 °F 995.1 in SSW 4.5 mph 7.4 mph 94% 0.0 in WeatherDisplay:10.37 W/m2 FEW
14:01 3.9 °F 3.0 °F 995.1 in SSE 4.5 mph 13.0 mph 94% 0.0 in WeatherDisplay:10.37 W/m2 FEW
14:06 3.9 °F 3.0 °F 995.1 in SE 1.6 mph 5.6 mph 94% 0.0 in WeatherDisplay:10.37 W/m2 FEW
14:11 3.9 °F 3.0 °F 995.1 in SSE 1.6 mph 11.3 mph 94% 0.0 in WeatherDisplay:10.37 W/m2 FEW
14:16 3.9 °F 3.0 °F 995.1 in South 7.9 mph 16.7 mph 94% 0.0 in WeatherDisplay:10.37 W/m2 FEW
14:21 3.8 °F 2.9 °F 995.1 in East 2.6 mph 7.4 mph 94% 0.0 in WeatherDisplay:10.37 W/m2 FEW
14:26 3.8 °F 2.9 °F 995.1 in SSW 6.8 mph 13.0 mph 94% 0.0 in WeatherDisplay:10.37 W/m2 FEW
14:31 3.8 °F 2.9 °F 995.5 in SSW 4.8 mph 16.7 mph 94% 0.0 in WeatherDisplay:10.37 W/m2 FEW
14:36 3.8 °F 2.9 °F 995.5 in West 5.6 mph 16.7 mph 94% 0.0 in WeatherDisplay:10.37 W/m2 FEW
14:41 3.8 °F 2.9 °F 995.5 in South 1.8 mph 6.4 mph 94% 0.0 in WeatherDisplay:10.37 W/m2 FEW
14:46 3.9 °F 3.0 °F 995.5 in West 5.0 mph 20.4 mph 94% 0.0 in WeatherDisplay:10.37 W/m2 FEW
14:51 3.9 °F 3.0 °F 995.8 in SW 2.3 mph 5.6 mph 94% 0.0 in WeatherDisplay:10.37 W/m2 FEW
14:56 3.9 °F 3.0 °F 995.8 in South 1.8 mph 5.6 mph 94% 0.0 in WeatherDisplay:10.37 W/m2 FEW
15:01 3.9 °F 3.0 °F 995.8 in West 2.7 mph 9.3 mph 94% 0.0 in WeatherDisplay:10.37 W/m2 FEW
15:06 3.9 °F 2.8 °F 995.8 in SE 4.2 mph 9.3 mph 93% 0.0 in WeatherDisplay:10.37 W/m2 FEW
15:11 3.8 °F 2.8 °F 995.8 in South 1.1 mph   93% 0.0 in WeatherDisplay:10.37 W/m2 FEW
15:16 3.8 °F 2.8 °F 995.8 in SE 7.1 mph 18.5 mph 93% 0.0 in WeatherDisplay:10.37 W/m2 FEW
15:21 3.8 °F 2.8 °F 995.8 in SW 4.7 mph 11.1 mph 93% 0.0 in WeatherDisplay:10.37 W/m2 FEW
15:26 3.8 °F 2.7 °F 996.2 in South 3.7 mph 14.8 mph 93% 0.0 in WeatherDisplay:10.37 W/m2 FEW
15:31 3.8 °F 2.7 °F 996.2 in WSW 1.3 mph 11.1 mph 93% 0.0 in WeatherDisplay:10.37 W/m2 FEW
15:36 3.8 °F 2.7 °F 996.2 in North 0.8 mph 7.4 mph 93% 0.0 in WeatherDisplay:10.37 W/m2 FEW
15:41 3.8 °F 2.7 °F 996.2 in ESE 2.4 mph 14.5 mph 93% 0.0 in WeatherDisplay:10.37 W/m2 FEW
15:46 3.8 °F 2.7 °F 996.2 in SE 1.6 mph 5.6 mph 93% 0.0 in WeatherDisplay:10.37 W/m2 FEW
15:51 3.8 °F 2.8 °F 996.2 in ENE 0.8 mph 6.4 mph 93% 0.0 in WeatherDisplay:10.37 W/m2 FEW
15:56 3.8 °F 2.8 °F 996.2 in Calm   1.6 mph 93% 0.0 in WeatherDisplay:10.37 W/m2 FEW
16:01 3.8 °F 2.8 °F 996.5 in SSW 1.3 mph 9.7 mph 93% 0.0 in WeatherDisplay:10.37 W/m2 FEW
16:06 3.8 °F 2.8 °F 996.5 in SSW 4.7 mph 11.1 mph 93% 0.0 in WeatherDisplay:10.37 W/m2 FEW
16:11 3.8 °F 2.8 °F 996.5 in South 0.6 mph 3.2 mph 93% 0.0 in WeatherDisplay:10.37 W/m2 FEW
16:16 3.7 °F 2.7 °F 996.8 in Calm   13.0 mph 93% 0.0 in WeatherDisplay:10.37 W/m2 FEW
16:21 3.8 °F 2.7 °F 996.8 in WSW 3.5 mph 13.0 mph 93% 0.0 in WeatherDisplay:10.37 W/m2 FEW
16:26 3.7 °F 2.7 °F 996.8 in WSW 3.1 mph 5.6 mph 93% 0.0 in WeatherDisplay:10.37 W/m2 FEW
16:31 3.8 °F 2.7 °F 996.8 in WSW 1.4 mph 5.6 mph 93% 0.0 in WeatherDisplay:10.37 W/m2 FEW
16:36 3.8 °F 2.7 °F 996.8 in South 1.3 mph 5.6 mph 93% 0.0 in WeatherDisplay:10.37 W/m2 FEW
16:41 3.8 °F 2.7 °F 997.2 in West 0.3 mph 5.6 mph 93% 0.0 in WeatherDisplay:10.37 W/m2 FEW
16:46 3.8 °F 2.7 °F 997.2 in Calm   11.1 mph 93% 0.0 in WeatherDisplay:10.37 W/m2 FEW
16:51 3.8 °F 2.7 °F 996.8 in SSW 3.4 mph 5.6 mph 93% 0.0 in WeatherDisplay:10.37 W/m2 FEW
16:56 3.7 °F 2.7 °F 997.2 in SSW 3.9 mph 8.0 mph 93% 0.0 in WeatherDisplay:10.37 W/m2 FEW
17:01 3.7 °F 2.7 °F 997.2 in SW 0.2 mph 5.6 mph 93% 0.0 in WeatherDisplay:10.37 W/m2 FEW
17:06 3.7 °F 2.7 °F 997.2 in SW 2.3 mph 9.3 mph 93% 0.0 in WeatherDisplay:10.37 W/m2 FEW
17:11 3.8 °F 2.7 °F 997.2 in SE 2.4 mph 7.4 mph 93% 0.0 in WeatherDisplay:10.37 W/m2 FEW
17:16 3.8 °F 2.7 °F 997.2 in WNW 0.8 mph 3.7 mph 93% 0.0 in WeatherDisplay:10.37 W/m2 FEW
17:21 3.8 °F 2.7 °F 997.5 in WNW 0.2 mph 18.5 mph 93% 0.0 in WeatherDisplay:10.37 W/m2 FEW
17:26 3.8 °F 2.7 °F 997.5 in SSW 0.5 mph 7.4 mph 93% 0.0 in WeatherDisplay:10.37 W/m2 FEW
17:31 3.8 °F 2.7 °F 997.5 in Calm   5.6 mph 93% 0.0 in WeatherDisplay:10.37 W/m2 FEW
17:36 3.8 °F 2.7 °F 997.5 in ESE 1.4 mph 5.6 mph 93% 0.0 in WeatherDisplay:10.37 W/m2 FEW
17:41 3.8 °F 2.8 °F 997.9 in South 0.2 mph 1.6 mph 93% 0.0 in WeatherDisplay:10.37 W/m2 FEW
17:46 3.9 °F 2.8 °F 997.9 in West 3.1 mph 9.3 mph 93% 0.0 in WeatherDisplay:10.37 W/m2 FEW
17:51 3.9 °F 2.9 °F 997.9 in NNE 1.9 mph 6.4 mph 93% 0.0 in WeatherDisplay:10.37 W/m2 FEW
17:56 3.9 °F 2.8 °F 998.2 in Calm     93% 0.0 in WeatherDisplay:10.37 W/m2 FEW
18:01 3.8 °F 2.8 °F 997.9 in NNE 1.3 mph 7.4 mph 93% 0.0 in WeatherDisplay:10.37 W/m2 FEW
18:06 3.9 °F 2.8 °F 998.2 in East 1.4 mph 13.0 mph 93% 0.0 in WeatherDisplay:10.37 W/m2 FEW
18:11 3.9 °F 2.8 °F 998.2 in West 1.9 mph 4.8 mph 93% 0.0 in WeatherDisplay:10.37 W/m2 FEW
18:16 4.0 °F 2.9 °F 998.2 in SW 1.9 mph 5.6 mph 93% 0.0 in WeatherDisplay:10.37 W/m2 FEW
18:21 4.0 °F 2.8 °F 998.2 in Calm     92% 0.0 in WeatherDisplay:10.37 W/m2 FEW
18:26 3.9 °F 2.8 °F 998.2 in West 1.1 mph 18.5 mph 92% 0.0 in WeatherDisplay:10.37 W/m2 FEW
18:31 3.9 °F 2.7 °F 998.2 in NW 2.6 mph 5.6 mph 92% 0.0 in WeatherDisplay:10.37 W/m2 FEW
18:36 3.8 °F 2.8 °F 998.5 in SSE 0.3 mph 5.6 mph 93% 0.0 in WeatherDisplay:10.37 W/m2 FEW
18:41 3.8 °F 2.8 °F 998.5 in Calm   7.4 mph 93% 0.0 in WeatherDisplay:10.37 W/m2 FEW
18:46 3.9 °F 2.7 °F 998.5 in West 1.3 mph 5.6 mph 92% 0.0 in WeatherDisplay:10.37 W/m2 FEW
18:51 3.9 °F 2.9 °F 998.9 in NW 3.5 mph 5.6 mph 93% 0.0 in WeatherDisplay:10.37 W/m2 FEW
18:56 3.9 °F 2.9 °F 998.9 in West 2.6 mph 9.3 mph 93% 0.0 in WeatherDisplay:10.37 W/m2 FEW
19:01 3.9 °F 2.8 °F 998.9 in SW 3.2 mph 9.3 mph 92% 0.0 in WeatherDisplay:10.37 W/m2 FEW
19:06 3.9 °F 2.8 °F 998.9 in SSW 1.1 mph 13.0 mph 92% 0.0 in WeatherDisplay:10.37 W/m2 FEW
19:11 3.9 °F 2.7 °F 998.9 in West 4.0 mph 11.1 mph 92% 0.0 in WeatherDisplay:10.37 W/m2 FEW
19:16 3.9 °F 2.7 °F 998.9 in South 1.4 mph 14.8 mph 92% 0.0 in WeatherDisplay:10.37 W/m2 FEW
19:21 3.8 °F 2.7 °F 998.9 in SE 3.1 mph 7.4 mph 92% 0.0 in WeatherDisplay:10.37 W/m2 FEW
19:26 3.8 °F 2.8 °F 999.2 in SW 2.1 mph 12.9 mph 93% 0.0 in WeatherDisplay:10.37 W/m2 FEW
19:31 3.9 °F 2.7 °F 999.2 in SW 6.3 mph 9.3 mph 92% 0.0 in WeatherDisplay:10.37 W/m2 FEW
19:36 3.9 °F 2.8 °F 999.2 in WSW 2.4 mph 14.8 mph 93% 0.0 in WeatherDisplay:10.37 W/m2 FEW
19:41 3.9 °F 2.7 °F 999.5 in WSW 2.3 mph 5.6 mph 92% 0.0 in WeatherDisplay:10.37 W/m2 FEW
19:46 3.9 °F 2.7 °F 999.5 in NW 1.6 mph 7.4 mph 92% 0.0 in WeatherDisplay:10.37 W/m2 FEW
19:51 3.9 °F 2.7 °F 999.5 in SSW 1.1 mph 5.6 mph 92% 0.0 in WeatherDisplay:10.37 W/m2 FEW
19:56 3.8 °F 2.7 °F 999.9 in NE 1.9 mph 5.6 mph 92% 0.0 in WeatherDisplay:10.37 W/m2 FEW
20:01 3.8 °F 2.6 °F 999.9 in ESE 3.1 mph 14.5 mph 92% 0.0 in WeatherDisplay:10.37 W/m2 FEW
20:06 3.7 °F 2.6 °F 999.9 in SW 1.8 mph 3.7 mph 92% 0.0 in WeatherDisplay:10.37 W/m2 FEW
20:11 3.7 °F 2.6 °F 999.9 in West 3.2 mph 5.6 mph 92% 0.0 in WeatherDisplay:10.37 W/m2 FEW
20:16 3.8 °F 2.6 °F 999.9 in Calm   5.6 mph 92% 0.0 in WeatherDisplay:10.37 W/m2 FEW
20:21 3.7 °F 2.6 °F 1000.2 in Calm     92% 0.0 in WeatherDisplay:10.37 W/m2 FEW
20:26 3.7 °F 2.5 °F 1000.2 in SE 1.6 mph 5.6 mph 92% 0.0 in WeatherDisplay:10.37 W/m2 FEW
20:31 3.7 °F 2.7 °F 1000.2 in WSW 1.9 mph 3.7 mph 93% 0.0 in WeatherDisplay:10.37 W/m2 FEW
20:36 3.7 °F 2.7 °F 1000.2 in Calm   7.4 mph 93% 0.0 in WeatherDisplay:10.37 W/m2 FEW
20:41 3.6 °F 2.4 °F 1000.2 in West 1.1 mph 4.8 mph 92% 0.0 in WeatherDisplay:10.37 W/m2 FEW
20:46 3.5 °F 2.3 °F 1000.2 in Calm     92% 0.0 in WeatherDisplay:10.37 W/m2 FEW
20:51 3.5 °F 2.5 °F 1000.6 in West 4.0 mph 5.6 mph 93% 0.0 in WeatherDisplay:10.37 W/m2 FEW
20:56 3.4 °F 2.3 °F 1000.6 in West 1.9 mph 5.6 mph 92% 0.0 in WeatherDisplay:10.37 W/m2 FEW
21:01 3.4 °F 2.4 °F 1000.6 in SSE 4.7 mph 4.7 mph 93% 0.0 in WeatherDisplay:10.37 W/m2 FEW
21:06 3.3 °F 2.3 °F 1000.9 in NW 0.2 mph 7.4 mph 93% 0.0 in WeatherDisplay:10.37 W/m2 FEW
21:11 3.3 °F 2.3 °F 1000.9 in NNW 0.8 mph   93% 0.0 in WeatherDisplay:10.37 W/m2 FEW
21:16 3.3 °F 2.3 °F 1000.9 in Calm   5.6 mph 93% 0.0 in WeatherDisplay:10.37 W/m2 FEW
21:21 3.2 °F 2.2 °F 1000.9 in East 0.6 mph 5.6 mph 93% 0.0 in WeatherDisplay:10.37 W/m2 FEW
21:26 3.2 °F 2.2 °F 1000.9 in SSE 1.4 mph   93% 0.0 in WeatherDisplay:10.37 W/m2 FEW
21:31 3.1 °F 2.1 °F 1000.9 in SE 0.5 mph 1.6 mph 93% 0.0 in WeatherDisplay:10.37 W/m2 FEW
21:36 3.0 °F 2.0 °F 1000.9 in WNW 2.3 mph 6.4 mph 93% 0.0 in WeatherDisplay:10.37 W/m2 FEW
21:41 2.9 °F 1.9 °F 1001.2 in West 1.6 mph 1.9 mph 93% 0.0 in WeatherDisplay:10.37 W/m2 FEW
21:46 3.0 °F 2.0 °F 1001.2 in West 0.2 mph 3.7 mph 93% 0.0 in WeatherDisplay:10.37 W/m2 FEW
21:51 3.1 °F 2.1 °F 1001.2 in NW 1.0 mph 5.6 mph 93% 0.0 in WeatherDisplay:10.37 W/m2 FEW
21:56 3.1 °F 2.1 °F 1001.6 in Calm   7.4 mph 93% 0.0 in WeatherDisplay:10.37 W/m2 FEW
22:01 3.1 °F 2.1 °F 1001.6 in Calm     93% 0.0 in WeatherDisplay:10.37 W/m2 FEW
22:06 3.1 °F 2.1 °F 1001.6 in WNW 1.6 mph 5.6 mph 93% 0.0 in WeatherDisplay:10.37 W/m2 FEW
22:11 3.1 °F 2.1 °F 1001.6 in West 0.5 mph   93% 0.0 in WeatherDisplay:10.37 W/m2 FEW
22:16 3.1 °F 2.1 °F 1001.6 in NNE 1.0 mph   93% 0.0 in WeatherDisplay:10.37 W/m2 FEW
22:21 3.0 °F 2.0 °F 1001.9 in Calm     93% 0.0 in WeatherDisplay:10.37 W/m2 FEW
22:26 2.9 °F 1.9 °F 1001.9 in Calm     93% 0.0 in WeatherDisplay:10.37 W/m2 FEW
22:31 2.9 °F 1.9 °F 1002.3 in SSE 0.2 mph 1.9 mph 93% 0.0 in WeatherDisplay:10.37 W/m2 FEW
22:36 2.8 °F 1.8 °F 1002.3 in Calm     93% 0.0 in WeatherDisplay:10.37 W/m2 FEW
22:41 2.6 °F 1.6 °F 1002.3 in Calm     93% 0.0 in WeatherDisplay:10.37 W/m2 FEW
22:46 2.4 °F 1.4 °F 1002.3 in South 1.0 mph 9.3 mph 93% 0.0 in WeatherDisplay:10.37 W/m2 FEW
22:51 2.3 °F 1.3 °F 1002.6 in Calm   1.9 mph 93% 0.0 in WeatherDisplay:10.37 W/m2 FEW
22:56 2.3 °F 1.3 °F 1002.6 in SSE 1.3 mph 7.4 mph 93% 0.0 in WeatherDisplay:10.37 W/m2 FEW
23:01 2.4 °F 1.4 °F 1002.6 in NNW 1.0 mph 5.6 mph 93% 0.0 in WeatherDisplay:10.37 W/m2 FEW
23:06 2.4 °F 1.4 °F 1002.6 in NNE 0.2 mph 5.6 mph 93% 0.0 in WeatherDisplay:10.37 W/m2 FEW
23:11 2.4 °F 1.4 °F 1002.9 in Calm     93% 0.0 in WeatherDisplay:10.37 W/m2 FEW
23:16 2.3 °F 1.3 °F 1002.9 in Calm   5.6 mph 93% 0.0 in WeatherDisplay:10.37 W/m2 FEW
23:21 2.3 °F 1.4 °F 1002.9 in Calm     94% 0.0 in WeatherDisplay:10.37 W/m2 FEW
23:26 2.2 °F 1.3 °F 1002.9 in Calm     94% 0.0 in WeatherDisplay:10.37 W/m2 FEW
23:31 2.2 °F 1.3 °F 1003.3 in Calm     94% 0.0 in WeatherDisplay:10.37 W/m2 FEW
23:36 2.1 °F 1.1 °F 1003.3 in Calm     93% 0.0 in WeatherDisplay:10.37 W/m2 FEW
23:41 2.1 °F 1.2 °F 1003.3 in SSE 1.8 mph 1.9 mph 94% 0.0 in WeatherDisplay:10.37 W/m2 FEW
23:46 2.1 °F 1.2 °F 1003.3 in NW 1.1 mph 3.2 mph 94% 0.0 in WeatherDisplay:10.37 W/m2 FEW
23:51 2.2 °F 1.3 °F 1003.3 in Calm     94% 0.0 in WeatherDisplay:10.37 W/m2 FEW
23:56 2.2 °F 1.3 °F 1003.6 in WNW 1.9 mph 11.1 mph 94% 0.0 in WeatherDisplay:10.37 W/m2 FEW
Tuulensuunkaari, Veikkola, Suomi
Compliments of Weather Underground - 2.75 mb